Regional Weather Roundup
Issued by NWS

Home | Current Version | Previous Version | Text Only | Print | Product List | Glossary On
Versions: 1 2 3 4 5 6 7 8 9 10 11 12 13 14 15 16 17 18 19 20 21 22 23 24 25 26 27 28 29
000
ASUS45 KTFX 291510
RWRMT
MONTANA REGIONAL WEATHER ROUNDUP
NATIONAL WEATHER SERVICE GREAT FALLS MT
900 AM MDT FRI APR 29 2016

NOTE: "FAIR" INDICATES FEW OR NO CLOUDS BELOW 12000 FEET WITH NO
SIGNIFICANT WEATHER AND/OR OBSTRUCTIONS TO VISIBILITY.

MTZ001>007-043-291600-
WEST OF THE DIVIDE

CITY           SKY/WX    TMP DP  RH WIND       PRES   REMARKS
KALISPELL      CLOUDY    44  37  76 CALM      29.92S
MISSOULA       CLOUDY    39  35  86 NW5       29.95S
BUTTE          CLOUDY    37  26  64 E5        29.92S
MULLAN PASS    CLOUDY    34  26  72 CALM      29.89S
ANACONDA         N/A     37  28  70 SE3       29.93S
DEER LODGE       N/A     39  28  65 CALM      29.94F
EUREKA           N/A     41  36  81 CALM      29.94F
HAMILTON         N/A     39  37  93 CALM      29.93S
LIBBY            N/A     39  34  81 CALM      29.95S
PLAINS           N/A     42  36  79 CALM      29.95S
$$

MTZ008-052>055-291600-
SOUTHWEST MONTANA

CITY           SKY/WX    TMP DP  RH WIND       PRES   REMARKS
BOZEMAN        CLOUDY    38  29  70 NW6       29.96S
DILLON         CLOUDY    38  26  62 NE10      29.91S WCI  31
TWIN BRIDGES     N/A     40  24  53 N15       29.92S
$$

MTZ009-010-012-014-046-048-049-054-291600-
EAST SLOPES AND CENTRAL MONTANA

CITY           SKY/WX    TMP DP  RH WIND       PRES   REMARKS
CUT BANK       CLOUDY    36  34  92 SE10      29.97S WCI  28
GREAT FALLS    CLOUDY    39  35  86 SW5       29.97S
HELENA         CLOUDY    42  33  70 VRB3      29.96S
CHOTEAU          N/A     36  36 100 CALM      29.97F
CONRAD           N/A     37  37 100 E5        30.00S
$$

MTZ011-013-016-021-045-047-050-051-291600-
NORTH CENTRAL MONTANA

CITY           SKY/WX    TMP DP  RH WIND       PRES   REMARKS
HAVRE          CLOUDY    47  35  63 SE20      30.01F
LEWISTOWN      CLOUDY    41  31  67 SE8       30.00S
N BAR RANCH    CLOUDY    34  34 100 SE6       30.05R WCI  29
CHINOOK          N/A     43  37  81 E10G16    30.06S
$$

MTZ017>020-022>027-061-062-291600-
NORTHEAST MONTANA

CITY           SKY/WX    TMP DP  RH WIND       PRES   REMARKS
GLASGOW        CLOUDY    47  36  65 E9        30.11S
JORDAN           N/A     42  36  79 SE7       30.09R
SIDNEY         CLOUDY    45  30  57 NE6       30.17R
WOLF POINT     CLOUDY    46  33  60 E8        30.14R
PLENTYWOOD       N/A     48  21  34 E14       30.16S
POPLAR           N/A     48  28  46 E12       30.15R
SCOBEY           N/A     51  22  32 E17       30.11S
$$

MTZ028>42-056>058-291600-
SOUTHCENTRAL AND SOUTHEAST MONTANA

CITY           SKY/WX    TMP DP  RH WIND       PRES   REMARKS
BAKER          CLOUDY    40  33  76 S8        30.14R
BILLINGS       CLOUDY    37  35  92 NE5       30.03S
LIVINGSTON     CLOUDY    37  30  75 E13       29.97S WCI  29
MILES CITY     CLOUDY    42  35  76 E6        30.10S
EKALAKA          N/A     38  34  85 E8        30.07F
FORSYTH          N/A     43  37  81 E13       30.08S
LAUREL           N/A     37  29  73 N2        30.01R
ROUNDUP          N/A     37  34  89 E5        29.96R
$$

REGIONAL REPORTS...DAKOTAS

CITY           SKY/WX    TMP DP  RH WIND       PRES   REMARKS
WILLISTON      SUNNY     50  27  40 VRB7      30.18R
MINOT          SUNNY     50  21  32 VRB5      30.21S
DICKINSON      CLOUDY    44  29  55 E12       30.15R
BEACH          CLOUDY    45  32  61 E12       30.17R
CROSBY           N/A     46  19  34 E10       30.22S
TIOGA            N/A     48  23  37 E8        30.24S
WATFORD CITY     N/A     48  27  43 SE15      30.18R
BISMARCK       CLOUDY    47  32  56 E7        30.20S
GRAND FORKS    PTSUNNY   50  33  52 NE8       30.23R
FARGO          SUNNY     51  38  60 VRB3      30.19S
BUFFALO SD       N/A     41  35  79 CALM      30.05F
RAPID CITY     CLOUDY    38  35  89 E6        30.10S
$$

REGIONAL REPORTS...WYOMING/IDAHO/WASHINGTON

CITY           SKY/WX    TMP DP  RH WIND       PRES   REMARKS
GILLETTE       CLOUDY    37  33  85 S12       30.04S WCI  29
SHERIDAN       PTSUNNY   42  28  57 VRB5      30.02F
BUFFALO WY       N/A    N/A N/A N/A MISG      30.01F
CODY           CLOUDY    37  30  75 CALM      29.98F
YELLOWSTONE LA   N/A     31  20  63 E3        29.94S
IDAHO FALLS    CLOUDY    44  32  62 NW5       29.91R
SALMON         CLOUDY    39  34  81 CALM      29.91S
BOISE          MOSUNNY   51  39  63 W7        29.91R
SPOKANE        LGT RAIN  49  39  68 CALM      29.93S
$$

REGIONAL REPORTS...ALBERTA

CITY           SKY/WX    TMP DP  RH WIND       PRES   REMARKS
EDMONTON       SUNNY     50  32  50 S14G20    29.95R
CALGARY        PTSUNNY   41  30  65 S14       29.94R
LETHBRIDGE     CLOUDY    39  37  93 S12G17    29.98F WCI  32
MEDICINE HAT   PTSUNNY   48  34  57 E8        30.03F
WATERTON GATE    N/A     37  32  81 N5          N/A
MILK RIVER       N/A     39  36  87 S10         N/A
$$

REGIONAL REPORTS...SASKATCHEWAN

CITY           SKY/WX    TMP DP  RH WIND       PRES   REMARKS
SWIFT CURRENT  SUNNY     50  27  40 SE14      30.09F
REGINA         MOSUNNY   50  16  25 SE15      30.20S
SASKATOON      SUNNY     52  23  32 SE12      30.18S
CYPRESS HILLS    N/A     39  28  65 SE14G23     N/A  WCI  31
VAL MARIE        N/A     45  34  65 E10         N/A
ROCKGLEN         N/A     46  25  42 SE12        N/A
$$




USA.gov is the U.S. government's official web portal to all federal, state and local government web resources and services.